This demonstration page uses our WeatherBlox Daily Observations layout. Learn more.

Left ArrowRight Arrow

34.16533, -84.80231

Hourly Observations for December 16, 2017

Temp ( °F °C ) Dew Point ( °F °C ) Humidity (%) Winds ( mph kmh ) Pressure ( in mb ) Visibility ( mi km ) Precip ( " mm )
12:53 am 00:53 Clear 25 -3.9 23 -5 92 92 Calm 30.25 1024 8 13 0.00 0.00
1:53 am 01:53 Clear 25 -3.9 23 -5 92 92 Calm 30.25 1024 7 11 0.00 0.00
2:53 am 02:53 Clear 23 -5 23 -5 100 100 Calm 30.25 1025 7 11 0.00 0.00
3:53 am 03:53 Clear 24 -4.4 23 -5 96 96 Calm 30.27 1025 7 11 0.00 0.00
4:53 am 04:53 Clear with Mist and Fog 23 -5 23 -5 100 100 Calm 30.26 1025 6 10 0.00 0.00
5:53 am 05:53 Clear with Mist and Fog 22 -5.6 22 -5.6 100 100 Calm 30.27 1025 6 10 0.00 0.00
6:53 am 06:53 Clear with Mist and Fog 22 -5.6 21 -6.1 96 96 Calm 30.29 1026 6 10 0.00 0.00
7:53 am 07:53 Sunny with Mist and Fog 22 -5.6 22 -5.6 100 100 Calm 30.30 1026 5 8 0.00 0.00
8:53 am 08:53 Sunny with Mist and Fog 27 -2.8 26 -3.3 96 96 Calm 30.32 1027 5 8 0.00 0.00
9:53 am 09:53 Sunny 31 -0.6 27 -2.8 85 85 VRB 3 6 30.34 1027 8 13 0.00 0.00
10:53 am 10:53 Sunny 37 2.8 28 -2.2 70 70 VRB 3 6 30.35 1028 10 16 0.00 0.00
11:53 am 11:53 Sunny 42 5.6 27 -2.8 55 55 Calm 30.32 1027 10 16 0.00 0.00
12:53 pm 12:53 Sunny 46 7.8 28 -2.2 50 50 VRB 3 6 30.29 1026 10 16 0.00 0.00
1:53 pm 13:53 Sunny 47 8.3 28 -2.2 48 48 VRB 7 11 30.27 1025 10 16 0.00 0.00
2:53 pm 14:53 Sunny 48 8.9 28 -2.2 46 46 Calm 30.26 1025 10 16 0.00 0.00
3:53 pm 15:53 Sunny 49 9.4 28 -2.2 44 44 Calm 30.26 1025 10 16 0.00 0.00
4:53 pm 16:53 Sunny 48 8.9 28 -2.2 46 46 Calm 30.25 1024 10 16 0.00 0.00
5:53 pm 17:53 Clear 37 2.8 31 -0.6 79 79 Calm 30.25 1025 10 16 0.00 0.00
6:53 pm 18:53 Clear 34 1.1 30 -1.1 85 85 Calm 30.26 1025 10 16 0.00 0.00
7:53 pm 19:53 Clear 33 0.6 30 -1.1 89 89 Calm 30.28 1025 10 16 0.00 0.00
8:53 pm 20:53 Clear 30 -1.1 28 -2.2 92 92 Calm 30.29 1026 10 16 0.00 0.00
9:53 pm 21:53 Clear 27 -2.8 27 -2.8 100 100 Calm 30.30 1026 10 16 0.00 0.00
10:53 pm 22:53 Clear 28 -2.2 27 -2.8 96 96 Calm 30.30 1026 10 16 0.00 0.00
11:53 pm 23:53 Clear 28 -2.2 27 -2.8 96 96 Calm 30.30 1026 10 16 0.00 0.00

Powered by AerisWeather